Carbondale, IL

1:47 AM CST on December 16, 2019 (GMT -0600)
Southern Illinois

Weather History for KMDH - November, 2019

Change the Weather History Date:

Monday, November 11, 2019

  Actual Average Record
Temperature  
Mean Temperature 32 °F -  
Max Temperature 44 °F 55 °F 78 °F (1923)
Min Temperature 18 °F 34 °F 15 °F (1960)
Degree Days  
Heating Degree Days 34    
Moisture  
Dew Point 28 °F    
Average Humidity 87    
Maximum Humidity 97    
Minimum Humidity 68    
Precipitation  
Precipitation 0.13 in - - ()
Sea Level Pressure  
Sea Level Pressure 30.23 in    
Wind  
Wind Speed 12 mph (NNW)    
Max Wind Speed 24 mph    
Max Gust Speed 36 mph    
Visibility 4 miles    
Events Fog , Rain , Snow    
Averages and records for this station are not official NWS values.
T = Trace of Precipitation, MM = Missing Value Source: NWS Daily Summary

Daily Weather History Graph

Daily Weather History Graph

Search for Another Location

Airport or City:

Astronomy

Nov. 11, 2019 Rise Set
Actual Time 6:32 AM CST 4:48 PM CST
Civil Twilight 6:04 AM CST 5:16 PM CST
Nautical Twilight 5:33 AM CST 5:48 PM CST
Astronomical Twilight 5:02 AM CST 6:18 PM CST
Moon 4:42 PM CST (11/11) 5:25 AM CST (11/11)
Length of Visible Light 11h 11m
Length of Day
10h 16m
Waxing Gibbous, 99% of the Moon is Illuminated
Nov 11
Waxing Gibbous
Nov 12
Full
Nov 19
Last Quarter
Nov 26
New
Dec 4
First Quarter

Hourly Weather History & Observations

Time (CST) Temp. Windchill Dew Point Humidity Pressure Visibility Wind Dir Wind Speed Gust Speed Precip Events Conditions
12:52 AM 44.1 °F - 42.1 °F 93% 30.00 in 7.0 mi Calm Calm - N/A   Clear
1:52 AM 43.0 °F - 42.1 °F 97% 30.00 in 9.0 mi Calm Calm - N/A   Clear
2:52 AM 44.1 °F 40.8 °F 42.1 °F 93% 30.00 in 6.0 mi NW 5.8 mph - N/A   Clear
3:52 AM 43.0 °F 39.5 °F 41.0 °F 93% 30.01 in 5.0 mi NW 5.8 mph - N/A   Partly Cloudy
4:09 AM 44.1 °F 40.1 °F 41.0 °F 89% 30.01 in 6.0 mi NW 6.9 mph - N/A   Mostly Cloudy
4:52 AM 43.0 °F 37.7 °F 39.9 °F 89% 30.03 in 6.0 mi NW 9.2 mph - N/A   Overcast
5:52 AM 42.1 °F 36.6 °F 39.0 °F 89% 30.04 in 5.0 mi NNW 9.2 mph - N/A   Overcast
6:52 AM 43.0 °F 38.8 °F 37.9 °F 82% 30.05 in 5.0 mi NNW 6.9 mph - N/A   Haze
7:52 AM 43.0 °F 38.8 °F 37.9 °F 82% 30.09 in 5.0 mi NW 6.9 mph - N/A   Haze
8:52 AM 43.0 °F 37.2 °F 39.0 °F 86% 30.10 in 4.0 mi North 10.4 mph - N/A   Overcast
9:18 AM 42.1 °F 35.7 °F 39.0 °F 89% 30.10 in 2.5 mi NNW 11.5 mph - N/A   Overcast
9:35 AM 42.1 °F 35.2 °F 39.0 °F 89% 30.10 in 3.0 mi NNW 12.7 mph 20.7 mph N/A   Overcast
9:42 AM 42.1 °F 35.2 °F 39.0 °F 89% 30.11 in 2.0 mi NNW 12.7 mph 20.7 mph N/A   Overcast
10:14 AM 39.9 °F 30.8 °F 37.0 °F 89% 30.13 in 2.0 mi NNW 18.4 mph 27.6 mph 0.00 in Rain Light Rain
10:52 AM 39.0 °F 31.0 °F 36.0 °F 89% 30.14 in 2.0 mi NNW 13.8 mph 26.5 mph 0.00 in Rain Light Rain
11:26 AM 37.9 °F 28.9 °F 36.0 °F 93% 30.15 in 3.0 mi NNW 16.1 mph 24.2 mph 0.02 in Rain Light Rain
11:52 AM 37.9 °F 28.5 °F 35.1 °F 89% 30.16 in 4.0 mi North 17.3 mph 26.5 mph 0.04 in Rain Light Rain
12:00 PM 37.0 °F 28.1 °F 34.0 °F 89% 30.14 in 5.0 mi North 15.0 mph 34.5 mph 0.00 in Rain Light Rain
12:18 PM 37.0 °F 26.2 °F 33.1 °F 86% 30.15 in 7.0 mi North 21.9 mph 31.1 mph 0.01 in Rain Light Rain
12:29 PM 36.0 °F 26.0 °F 33.1 °F 89% 30.15 in 8.0 mi NNW 17.3 mph 31.1 mph 0.01 in Rain Light Rain
12:52 PM 35.1 °F 23.8 °F 32.0 °F 89% 30.17 in 7.0 mi NNW 20.7 mph 28.8 mph 0.01 in Rain Light Rain
1:07 PM 35.1 °F 24.5 °F 30.9 °F 85% 30.17 in 3.0 mi North 18.4 mph 35.7 mph 0.01 in Snow Light Snow
1:16 PM 34.0 °F 22.7 °F 30.9 °F 89% 30.19 in 2.5 mi NNW 19.6 mph 32.2 mph 0.02 in Snow Light Snow
1:24 PM 33.1 °F 21.9 °F 28.9 °F 85% 30.20 in 4.0 mi North 18.4 mph 33.4 mph 0.02 in Snow Light Snow
1:47 PM 32.0 °F 20.5 °F 28.4 °F 87% 30.20 in 7.0 mi North 18.4 mph 25.3 mph 0.03 in Rain Light Freezing Rain
1:48 PM 32.0 °F 20.1 °F 28.9 °F 88% 30.21 in 6.0 mi North 19.6 mph 25.3 mph 0.03 in Rain Light Freezing Rain
2:17 PM 30.9 °F 18.7 °F 28.0 °F 89% 30.22 in 2.5 mi NNW 19.6 mph 32.2 mph 0.00 in Snow Light Snow
2:29 PM 30.9 °F 18.4 °F 28.0 °F 89% 30.22 in 3.0 mi North 20.7 mph 28.8 mph 0.00 in Snow Light Snow
2:36 PM 30.9 °F 20.7 °F 28.0 °F 89% 30.22 in 4.0 mi North 13.8 mph 28.8 mph 0.00 in   Overcast
2:43 PM 30.0 °F 17.9 °F 27.0 °F 88% 30.22 in 3.0 mi NNW 18.4 mph 26.5 mph 0.00 in Snow Light Snow
2:50 PM 30.2 °F 17.8 °F 26.6 °F 86% 30.21 in 2.5 mi North 19.6 mph 27.6 mph 0.00 in Snow Light Snow
2:52 PM 30.0 °F 16.9 °F 27.0 °F 88% 30.23 in 2.5 mi North 21.9 mph 28.8 mph 0.00 in Snow Light Snow
3:07 PM 28.9 °F 17.3 °F 26.1 °F 89% 30.24 in 4.0 mi North 16.1 mph 28.8 mph 0.01 in Snow Light Snow
3:14 PM 28.9 °F 14.8 °F 25.0 °F 85% 30.25 in 5.0 mi North 24.2 mph 32.2 mph 0.01 in Snow Light Snow
3:44 PM 28.0 °F 18.1 °F 25.0 °F 88% 30.27 in 2.5 mi NNW 11.5 mph 24.2 mph 0.01 in Snow Light Snow
3:47 PM 28.4 °F 17.5 °F 24.8 °F 86% 30.26 in 1.8 mi NNW 13.8 mph - 0.01 in Snow Light Snow
3:52 PM 28.0 °F 16.5 °F 25.0 °F 88% 30.27 in 1.2 mi NNW 15.0 mph 26.5 mph 0.01 in Snow Light Snow
4:06 PM 28.0 °F 14.6 °F 25.0 °F 88% 30.28 in 1.0 mi North 20.7 mph 32.2 mph 0.01 in Snow Light Snow
4:21 PM 27.0 °F 13.5 °F 24.1 °F 89% 30.28 in 0.5 mi North 19.6 mph 33.4 mph 0.01 in Fog , Snow Snow
4:31 PM 27.0 °F 13.9 °F 25.0 °F 92% 30.29 in 0.2 mi NNW 18.4 mph 27.6 mph 0.01 in Fog , Snow Snow
4:34 PM 27.0 °F 13.5 °F 24.1 °F 89% 30.29 in 0.5 mi North 19.6 mph 27.6 mph 0.02 in Fog , Snow Snow
4:47 PM 26.6 °F 13.4 °F 24.8 °F 93% 30.30 in 2.0 mi North 18.4 mph 34.5 mph 0.02 in Snow Light Snow
4:48 PM 27.0 °F 13.9 °F 24.1 °F 89% 30.32 in 2.0 mi NNW 18.4 mph 34.5 mph 0.02 in Snow Light Snow
4:51 PM 27.0 °F 13.9 °F 24.1 °F 89% 30.30 in 2.0 mi NNW 18.4 mph 29.9 mph 0.00 in Snow Light Snow
5:05 PM 26.1 °F 12.7 °F 23.0 °F 88% 30.31 in 1.2 mi NNW 18.4 mph 32.2 mph 0.00 in Snow Light Snow
5:13 PM 25.0 °F 11.3 °F 21.9 °F 88% 30.32 in 1.5 mi NNW 18.4 mph 31.1 mph 0.00 in Snow Light Snow
5:41 PM 25.0 °F 12.2 °F 21.9 °F 88% 30.33 in 1.0 mi NNW 16.1 mph 25.3 mph 0.01 in Snow Light Snow
5:48 PM 24.8 °F 11.5 °F 21.2 °F 86% 30.33 in 0.8 mi NNW 17.3 mph 27.6 mph 0.01 in Snow Light Snow
5:52 PM 24.1 °F 10.6 °F 21.9 °F 91% 30.35 in 0.8 mi NNW 17.3 mph 27.6 mph 0.01 in Snow Light Snow
6:14 PM 24.1 °F 11.5 °F 21.0 °F 88% 30.35 in 2.0 mi NNW 15.0 mph 31.1 mph 0.01 in Snow Light Snow
6:17 PM 24.1 °F 11.0 °F 21.0 °F 88% 30.36 in 3.0 mi NNW 16.1 mph 25.3 mph 0.01 in Snow Light Snow
6:30 PM 24.1 °F 9.0 °F 21.0 °F 88% 30.37 in 1.8 mi NNW 21.9 mph 35.7 mph 0.01 in Snow Light Snow
6:52 PM 24.1 °F 9.8 °F 19.9 °F 84% 30.39 in 2.5 mi NNW 19.6 mph 34.5 mph 0.01 in Snow Light Snow
7:07 PM 24.1 °F 10.6 °F 19.9 °F 84% 30.39 in 1.0 mi NNW 17.3 mph 26.5 mph 0.00 in Snow Light Snow
7:32 PM 24.1 °F 10.6 °F 19.9 °F 84% 30.40 in 2.0 mi NNW 17.3 mph - 0.00 in Snow Light Snow
7:52 PM 24.1 °F 10.6 °F 19.9 °F 84% 30.41 in 8.0 mi NNW 17.3 mph 27.6 mph 0.00 in Snow Light Snow
8:52 PM 24.1 °F 9.4 °F 17.1 °F 75% 30.44 in 10.0 mi NNW 20.7 mph 35.7 mph 0.00 in   Overcast
9:52 PM 23.0 °F 7.2 °F 14.0 °F 68% 30.47 in 10.0 mi NNW 23.0 mph 31.1 mph N/A   Overcast
10:32 PM 21.9 °F 6.9 °F 12.9 °F 68% 30.47 in 10.0 mi NNW 19.6 mph 32.2 mph N/A   Overcast
10:52 PM 19.9 °F 5.7 °F 10.9 °F 68% 30.50 in 10.0 mi NNW 16.1 mph 28.8 mph N/A   Scattered Clouds
11:52 PM 18.0 °F 4.2 °F 9.0 °F 68% 30.51 in 10.0 mi NNW 13.8 mph 23.0 mph N/A   Clear